Year,Month,Day,Hour,Minute,Value (Times are PST for temperature in C)
2016,08,18,00,00,17.90
2016,08,18,00,01,17.90
2016,08,18,00,02,17.80
2016,08,18,00,03,17.80
2016,08,18,00,04,17.80
2016,08,18,00,05,17.70
2016,08,18,00,06,17.70
2016,08,18,00,07,17.70
2016,08,18,00,08,17.60
2016,08,18,00,09,17.60
2016,08,18,00,10,17.50
2016,08,18,00,11,17.40
2016,08,18,00,12,17.40
2016,08,18,00,13,17.40
2016,08,18,00,14,17.30
2016,08,18,00,15,17.30
2016,08,18,00,16,17.20
2016,08,18,00,17,17.20
2016,08,18,00,18,17.20
2016,08,18,00,19,17.10
2016,08,18,00,20,17.10
2016,08,18,00,21,17.10
2016,08,18,00,22,17.00
2016,08,18,00,23,17.00
2016,08,18,00,24,17.00
2016,08,18,00,25,16.90
2016,08,18,00,26,16.90
2016,08,18,00,27,16.90
2016,08,18,00,28,16.90
2016,08,18,00,29,16.80
2016,08,18,00,30,16.80
2016,08,18,00,31,16.80
2016,08,18,00,32,16.80
2016,08,18,00,33,16.70
2016,08,18,00,34,16.70
2016,08,18,00,35,16.80
2016,08,18,00,36,16.80
2016,08,18,00,37,16.70
2016,08,18,00,38,16.70
2016,08,18,00,39,16.70
2016,08,18,00,40,16.70
2016,08,18,00,41,16.70
2016,08,18,00,42,16.70
2016,08,18,00,43,16.70
2016,08,18,00,44,16.70
2016,08,18,00,45,16.70
2016,08,18,00,46,16.70
2016,08,18,00,47,16.60
2016,08,18,00,48,16.60
2016,08,18,00,49,16.60
2016,08,18,00,50,16.60
2016,08,18,00,51,16.50
2016,08,18,00,52,16.50
2016,08,18,00,53,16.40
2016,08,18,00,54,16.40
2016,08,18,00,55,16.40
2016,08,18,00,56,16.40
2016,08,18,00,57,16.30
2016,08,18,00,58,16.30
2016,08,18,00,59,16.30
2016,08,18,01,00,16.30
2016,08,18,01,01,16.20
2016,08,18,01,02,16.20
2016,08,18,01,03,16.20
2016,08,18,01,04,16.20
2016,08,18,01,05,16.20
2016,08,18,01,06,16.20
2016,08,18,01,07,16.20
2016,08,18,01,08,16.20
2016,08,18,01,09,16.20
2016,08,18,01,10,16.20
2016,08,18,01,11,16.20
2016,08,18,01,12,16.20
2016,08,18,01,13,16.20
2016,08,18,01,14,16.20
2016,08,18,01,15,16.20
2016,08,18,01,16,16.20
2016,08,18,01,17,16.20
2016,08,18,01,18,16.20
2016,08,18,01,19,16.20
2016,08,18,01,20,16.20
2016,08,18,01,21,16.20
2016,08,18,01,22,16.20
2016,08,18,01,23,16.20
2016,08,18,01,24,16.20
2016,08,18,01,25,16.20
2016,08,18,01,26,16.20
2016,08,18,01,27,16.20
2016,08,18,01,28,16.20
2016,08,18,01,29,16.20
2016,08,18,01,30,16.20
2016,08,18,01,31,16.20
2016,08,18,01,32,16.20
2016,08,18,01,33,16.20
2016,08,18,01,34,16.20
2016,08,18,01,35,16.20
2016,08,18,01,36,16.20
2016,08,18,01,37,16.10
2016,08,18,01,38,16.10
2016,08,18,01,39,16.10
2016,08,18,01,40,16.10
2016,08,18,01,41,16.10
2016,08,18,01,42,16.00
2016,08,18,01,43,16.00
2016,08,18,01,44,16.00
2016,08,18,01,45,15.90
2016,08,18,01,46,15.90
2016,08,18,01,47,15.90
2016,08,18,01,48,15.80
2016,08,18,01,49,15.80
2016,08,18,01,50,15.80
2016,08,18,01,51,15.80
2016,08,18,01,52,15.70
2016,08,18,01,53,15.70
2016,08,18,01,54,15.70
2016,08,18,01,55,15.70
2016,08,18,01,56,15.70
2016,08,18,01,57,15.60
2016,08,18,01,58,15.60
2016,08,18,01,59,15.60
2016,08,18,02,00,15.60
2016,08,18,02,01,15.50
2016,08,18,02,02,15.50
2016,08,18,02,03,15.50
2016,08,18,02,04,15.40
2016,08,18,02,05,15.40
2016,08,18,02,06,15.40
2016,08,18,02,07,15.40
2016,08,18,02,08,15.40
2016,08,18,02,09,15.30
2016,08,18,02,10,15.30
2016,08,18,02,11,15.30
2016,08,18,02,12,15.30
2016,08,18,02,13,15.30
2016,08,18,02,14,15.30
2016,08,18,02,15,15.30
2016,08,18,02,16,15.30
2016,08,18,02,17,15.40
2016,08,18,02,18,15.40
2016,08,18,02,19,15.40
2016,08,18,02,20,15.40
2016,08,18,02,21,15.40
2016,08,18,02,22,15.40
2016,08,18,02,23,15.40
2016,08,18,02,24,15.40
2016,08,18,02,25,15.40
2016,08,18,02,26,15.40
2016,08,18,02,27,15.40
2016,08,18,02,28,15.30
2016,08,18,02,29,15.30
2016,08,18,02,30,15.30
2016,08,18,02,31,15.20
2016,08,18,02,32,15.20
2016,08,18,02,33,15.20
2016,08,18,02,34,15.20
2016,08,18,02,35,15.20
2016,08,18,02,36,15.20
2016,08,18,02,37,15.20
2016,08,18,02,38,15.20
2016,08,18,02,39,15.30
2016,08,18,02,40,15.30
2016,08,18,02,41,15.30
2016,08,18,02,42,15.30
2016,08,18,02,43,15.30
2016,08,18,02,44,15.30
2016,08,18,02,45,15.30
2016,08,18,02,46,15.30
2016,08,18,02,47,15.30
2016,08,18,02,48,15.30
2016,08,18,02,49,15.30
2016,08,18,02,50,15.30
2016,08,18,02,51,15.30
2016,08,18,02,52,15.20
2016,08,18,02,53,15.20
2016,08,18,02,54,15.20
2016,08,18,02,55,15.20
2016,08,18,02,56,15.20
2016,08,18,02,57,15.10
2016,08,18,02,58,15.10
2016,08,18,02,59,15.10
2016,08,18,03,00,15.10
2016,08,18,03,01,15.00
2016,08,18,03,02,15.00
2016,08,18,03,03,14.90
2016,08,18,03,04,14.90
2016,08,18,03,05,14.90
2016,08,18,03,06,14.90
2016,08,18,03,07,14.90
2016,08,18,03,08,14.90
2016,08,18,03,09,14.80
2016,08,18,03,10,14.80
2016,08,18,03,11,14.80
2016,08,18,03,12,14.90
2016,08,18,03,13,14.90
2016,08,18,03,14,14.90
2016,08,18,03,15,14.90
2016,08,18,03,16,14.80
2016,08,18,03,17,14.80
2016,08,18,03,18,14.80
2016,08,18,03,19,14.80
2016,08,18,03,20,14.80
2016,08,18,03,21,14.80
2016,08,18,03,22,14.80
2016,08,18,03,23,14.80
2016,08,18,03,24,14.80
2016,08,18,03,25,14.80
2016,08,18,03,26,14.80
2016,08,18,03,27,14.80
2016,08,18,03,28,14.80
2016,08,18,03,29,14.80
2016,08,18,03,30,14.80
2016,08,18,03,31,14.80
2016,08,18,03,32,14.80
2016,08,18,03,33,14.80
2016,08,18,03,34,14.70
2016,08,18,03,35,14.70
2016,08,18,03,36,14.70
2016,08,18,03,37,14.70
2016,08,18,03,38,14.70
2016,08,18,03,39,14.70
2016,08,18,03,40,14.70
2016,08,18,03,41,14.70
2016,08,18,03,42,14.70
2016,08,18,03,43,14.70
2016,08,18,03,44,14.70
2016,08,18,03,45,14.70
2016,08,18,03,46,14.70
2016,08,18,03,47,14.60
2016,08,18,03,48,14.60
2016,08,18,03,49,14.60
2016,08,18,03,50,14.60
2016,08,18,03,51,14.60
2016,08,18,03,52,14.60
2016,08,18,03,53,14.60
2016,08,18,03,54,14.60
2016,08,18,03,55,14.60
2016,08,18,03,56,14.60
2016,08,18,03,57,14.60
2016,08,18,03,58,14.60
2016,08,18,03,59,14.60
2016,08,18,04,00,14.50
2016,08,18,04,01,14.50
2016,08,18,04,02,14.50
2016,08,18,04,03,14.50
2016,08,18,04,04,14.50
2016,08,18,04,05,14.40
2016,08,18,04,06,14.40
2016,08,18,04,07,14.40
2016,08,18,04,08,14.40
2016,08,18,04,09,14.40
2016,08,18,04,10,14.40
2016,08,18,04,11,14.40
2016,08,18,04,12,14.30
2016,08,18,04,13,14.30
2016,08,18,04,14,14.30
2016,08,18,04,15,14.30
2016,08,18,04,16,14.30
2016,08,18,04,17,14.30
2016,08,18,04,18,14.30
2016,08,18,04,19,14.30
2016,08,18,04,20,14.30
2016,08,18,04,21,14.20
2016,08,18,04,22,14.20
2016,08,18,04,23,14.20
2016,08,18,04,24,14.20
2016,08,18,04,25,14.20
2016,08,18,04,26,14.20
2016,08,18,04,27,14.20
2016,08,18,04,28,14.10
2016,08,18,04,29,14.10
2016,08,18,04,30,14.10
2016,08,18,04,31,14.10
2016,08,18,04,32,14.10
2016,08,18,04,33,14.00
2016,08,18,04,34,14.00
2016,08,18,04,35,14.00
2016,08,18,04,36,14.00
2016,08,18,04,37,13.90
2016,08,18,04,38,13.90
2016,08,18,04,39,13.90
2016,08,18,04,40,13.90
2016,08,18,04,41,13.90
2016,08,18,04,42,13.90
2016,08,18,04,43,13.90
2016,08,18,04,44,13.90
2016,08,18,04,45,13.90
2016,08,18,04,46,13.90
2016,08,18,04,47,13.90
2016,08,18,04,48,13.90
2016,08,18,04,49,13.90
2016,08,18,04,50,13.80
2016,08,18,04,51,13.80
2016,08,18,04,52,13.80
2016,08,18,04,53,13.80
2016,08,18,04,54,13.80
2016,08,18,04,55,13.80
2016,08,18,04,56,13.80
2016,08,18,04,57,13.80
2016,08,18,04,58,13.80
2016,08,18,04,59,13.80
2016,08,18,05,00,13.80
2016,08,18,05,01,13.80
2016,08,18,05,02,13.80
2016,08,18,05,03,13.80
2016,08,18,05,04,13.80
2016,08,18,05,05,13.80
2016,08,18,05,06,13.80
2016,08,18,05,07,13.80
2016,08,18,05,08,13.80
2016,08,18,05,09,13.80
2016,08,18,05,10,13.80
2016,08,18,05,11,13.70
2016,08,18,05,12,13.70
2016,08,18,05,13,13.70
2016,08,18,05,14,13.70
2016,08,18,05,15,13.70
2016,08,18,05,16,13.80
2016,08,18,05,17,13.80
2016,08,18,05,18,13.70
2016,08,18,05,19,13.70
2016,08,18,05,20,13.70
2016,08,18,05,21,13.70
2016,08,18,05,22,13.70
2016,08,18,05,23,13.70
2016,08,18,05,24,13.80
2016,08,18,05,25,13.80
2016,08,18,05,26,13.80
2016,08,18,05,27,13.80
2016,08,18,05,28,13.80
2016,08,18,05,29,13.80
2016,08,18,05,30,13.70
2016,08,18,05,31,13.70
2016,08,18,05,32,13.70
2016,08,18,05,33,13.70
2016,08,18,05,34,13.60
2016,08,18,05,35,13.60
2016,08,18,05,36,13.60
2016,08,18,05,37,13.60
2016,08,18,05,38,13.50
2016,08,18,05,39,13.50
2016,08,18,05,40,13.50
2016,08,18,05,41,13.40
2016,08,18,05,42,13.40
2016,08,18,05,43,13.40
2016,08,18,05,44,13.40
2016,08,18,05,45,13.40
2016,08,18,05,46,13.40
2016,08,18,05,47,13.40
2016,08,18,05,48,13.40
2016,08,18,05,49,13.30
2016,08,18,05,50,13.30
2016,08,18,05,51,13.30
2016,08,18,05,52,13.30
2016,08,18,05,53,13.40
2016,08,18,05,54,13.30
2016,08,18,05,55,13.30
2016,08,18,05,56,13.30
2016,08,18,05,57,13.30
2016,08,18,05,58,13.30
2016,08,18,05,59,13.30
2016,08,18,06,00,13.30
2016,08,18,06,01,13.30
2016,08,18,06,02,13.30
2016,08,18,06,03,13.30
2016,08,18,06,04,13.30
2016,08,18,06,05,13.30
2016,08,18,06,06,13.30
2016,08,18,06,07,13.30
2016,08,18,06,08,13.30
2016,08,18,06,09,13.30
2016,08,18,06,10,13.30
2016,08,18,06,11,13.30
2016,08,18,06,12,13.30
2016,08,18,06,13,13.30
2016,08,18,06,14,13.30
2016,08,18,06,15,13.30
2016,08,18,06,16,13.30
2016,08,18,06,17,13.20
2016,08,18,06,18,13.20
2016,08,18,06,19,13.20
2016,08,18,06,20,13.20
2016,08,18,06,21,13.20
2016,08,18,06,22,13.20
2016,08,18,06,23,13.20
2016,08,18,06,24,13.20
2016,08,18,06,25,13.20
2016,08,18,06,26,13.20
2016,08,18,06,27,13.20
2016,08,18,06,28,13.20
2016,08,18,06,29,13.20
2016,08,18,06,30,13.20
2016,08,18,06,31,13.20
2016,08,18,06,32,13.30
2016,08,18,06,33,13.30
2016,08,18,06,34,13.30
2016,08,18,06,35,13.30
2016,08,18,06,36,13.30
2016,08,18,06,37,13.30
2016,08,18,06,38,13.30
2016,08,18,06,39,13.40
2016,08,18,06,40,13.40
2016,08,18,06,41,13.40
2016,08,18,06,42,13.40
2016,08,18,06,43,13.30
2016,08,18,06,44,13.30
2016,08,18,06,45,13.30
2016,08,18,06,46,13.30
2016,08,18,06,47,13.40
2016,08,18,06,48,13.40
2016,08,18,06,49,13.40
2016,08,18,06,50,13.40
2016,08,18,06,51,13.40
2016,08,18,06,52,13.50
2016,08,18,06,53,13.50
2016,08,18,06,54,13.60
2016,08,18,06,55,13.60
2016,08,18,06,56,13.70
2016,08,18,06,57,13.80
2016,08,18,06,58,13.80
2016,08,18,06,59,13.90
2016,08,18,07,00,13.90
2016,08,18,07,01,13.90
2016,08,18,07,02,14.00
2016,08,18,07,03,14.00
2016,08,18,07,04,14.10
2016,08,18,07,05,14.10
2016,08,18,07,06,14.10
2016,08,18,07,07,14.20
2016,08,18,07,08,14.20
2016,08,18,07,09,14.20
2016,08,18,07,10,14.30
2016,08,18,07,11,14.30
2016,08,18,07,12,14.30
2016,08,18,07,13,14.30
2016,08,18,07,14,14.30
2016,08,18,07,15,14.30
2016,08,18,07,16,14.40
2016,08,18,07,17,14.30
2016,08,18,07,18,14.30
2016,08,18,07,19,14.30
2016,08,18,07,20,14.30
2016,08,18,07,21,14.30
2016,08,18,07,22,14.30
2016,08,18,07,23,14.30
2016,08,18,07,24,14.40
2016,08,18,07,25,14.40
2016,08,18,07,26,14.40
2016,08,18,07,27,14.40
2016,08,18,07,28,14.40
2016,08,18,07,29,14.40
2016,08,18,07,30,14.50
2016,08,18,07,31,14.50
2016,08,18,07,32,14.50
2016,08,18,07,33,14.60
2016,08,18,07,34,14.60
2016,08,18,07,35,14.60
2016,08,18,07,36,14.60
2016,08,18,07,37,14.70
2016,08,18,07,38,14.70
2016,08,18,07,39,14.70
2016,08,18,07,40,14.70
2016,08,18,07,41,14.80
2016,08,18,07,42,14.80
2016,08,18,07,43,14.90
2016,08,18,07,44,15.00
2016,08,18,07,45,15.00
2016,08,18,07,46,15.10
2016,08,18,07,47,15.20
2016,08,18,07,48,15.20
2016,08,18,07,49,15.30
2016,08,18,07,50,15.40
2016,08,18,07,51,15.40
2016,08,18,07,52,15.50
2016,08,18,07,53,15.50
2016,08,18,07,54,15.60
2016,08,18,07,55,15.60
2016,08,18,07,56,15.70
2016,08,18,07,57,15.70
2016,08,18,07,58,15.80
2016,08,18,07,59,15.90
2016,08,18,08,00,15.90
2016,08,18,08,01,16.00
2016,08,18,08,02,16.00
2016,08,18,08,03,16.10
2016,08,18,08,04,16.20
2016,08,18,08,05,16.30
2016,08,18,08,06,16.30
2016,08,18,08,07,16.40
2016,08,18,08,08,16.50
2016,08,18,08,09,16.60
2016,08,18,08,10,16.70
2016,08,18,08,11,16.70
2016,08,18,08,12,16.90
2016,08,18,08,13,17.00
2016,08,18,08,14,17.10
2016,08,18,08,15,17.20
2016,08,18,08,16,17.30
2016,08,18,08,17,17.40
2016,08,18,08,18,17.40
2016,08,18,08,19,17.50
2016,08,18,08,20,17.60
2016,08,18,08,21,17.70
2016,08,18,08,22,17.70
2016,08,18,08,23,17.80
2016,08,18,08,24,17.90
2016,08,18,08,25,18.00
2016,08,18,08,26,18.10
2016,08,18,08,27,18.20
2016,08,18,08,28,18.20
2016,08,18,08,29,18.30
2016,08,18,08,30,18.40
2016,08,18,08,31,18.40
2016,08,18,08,32,18.50
2016,08,18,08,33,18.60
2016,08,18,08,34,18.70
2016,08,18,08,35,18.70
2016,08,18,08,36,18.80
2016,08,18,08,37,18.90
2016,08,18,08,38,18.90
2016,08,18,08,39,19.00
2016,08,18,08,40,19.10
2016,08,18,08,41,19.20
2016,08,18,08,42,19.30
2016,08,18,08,43,19.40
2016,08,18,08,44,19.50
2016,08,18,08,45,19.50
2016,08,18,08,46,19.60
2016,08,18,08,47,19.70
2016,08,18,08,48,19.70
2016,08,18,08,49,19.80
2016,08,18,08,50,19.80
2016,08,18,08,51,19.90
2016,08,18,08,52,20.00
2016,08,18,08,53,20.00
2016,08,18,08,54,20.10
2016,08,18,08,55,20.10
2016,08,18,08,56,20.10
2016,08,18,08,57,20.20
2016,08,18,08,58,20.30
2016,08,18,08,59,20.30
2016,08,18,09,00,20.40
2016,08,18,09,01,20.50
2016,08,18,09,02,20.50
2016,08,18,09,03,20.60
2016,08,18,09,04,20.70
2016,08,18,09,05,20.80
2016,08,18,09,06,20.80
2016,08,18,09,07,20.90
2016,08,18,09,08,20.90
2016,08,18,09,09,21.00
2016,08,18,09,10,21.10
2016,08,18,09,11,21.10
2016,08,18,09,12,21.20
2016,08,18,09,13,21.20
2016,08,18,09,14,21.30
2016,08,18,09,15,21.30
2016,08,18,09,16,21.40
2016,08,18,09,17,21.50
2016,08,18,09,18,21.50
2016,08,18,09,19,21.60
2016,08,18,09,20,21.60
2016,08,18,09,21,21.70
2016,08,18,09,22,21.70
2016,08,18,09,23,21.80
2016,08,18,09,24,21.90
2016,08,18,09,25,22.00
2016,08,18,09,26,22.10
2016,08,18,09,27,22.20
2016,08,18,09,28,22.40
2016,08,18,09,29,22.60
2016,08,18,09,30,22.80
2016,08,18,09,31,23.00
2016,08,18,09,32,23.10
2016,08,18,09,33,23.30
2016,08,18,09,34,23.50
2016,08,18,09,35,23.60
2016,08,18,09,36,23.80
2016,08,18,09,37,23.90
2016,08,18,09,38,24.10
2016,08,18,09,39,24.10
2016,08,18,09,40,24.10
2016,08,18,09,41,24.00
2016,08,18,09,42,24.00
2016,08,18,09,43,24.00
2016,08,18,09,44,23.90
2016,08,18,09,45,23.80
2016,08,18,09,46,23.70
2016,08,18,09,47,23.70
2016,08,18,09,48,23.70
2016,08,18,09,49,23.80
2016,08,18,09,50,23.80
2016,08,18,09,51,23.90
2016,08,18,09,52,23.90
2016,08,18,09,53,23.90
2016,08,18,09,54,24.00
2016,08,18,09,55,24.10
2016,08,18,09,56,24.10
2016,08,18,09,57,24.20
2016,08,18,09,58,24.20
2016,08,18,09,59,24.30
2016,08,18,10,00,24.30
2016,08,18,10,01,24.40
2016,08,18,10,02,24.40
2016,08,18,10,03,24.40
2016,08,18,10,04,24.40
2016,08,18,10,05,24.30
2016,08,18,10,06,24.30
2016,08,18,10,07,24.20
2016,08,18,10,08,24.20
2016,08,18,10,09,24.20
2016,08,18,10,10,24.20
2016,08,18,10,11,24.30
2016,08,18,10,12,24.30
2016,08,18,10,13,24.40
2016,08,18,10,14,24.60
2016,08,18,10,15,24.70
2016,08,18,10,16,24.90
2016,08,18,10,17,25.10
2016,08,18,10,18,25.20
2016,08,18,10,19,25.20
2016,08,18,10,20,25.20
2016,08,18,10,21,25.30
2016,08,18,10,22,25.30
2016,08,18,10,23,25.40
2016,08,18,10,24,25.60
2016,08,18,10,25,25.70
2016,08,18,10,26,25.80
2016,08,18,10,27,26.00
2016,08,18,10,28,26.10
2016,08,18,10,29,26.20
2016,08,18,10,30,26.30
2016,08,18,10,31,26.30
2016,08,18,10,32,26.20
2016,08,18,10,33,26.30
2016,08,18,10,34,26.20
2016,08,18,10,35,26.30
2016,08,18,10,36,26.30
2016,08,18,10,37,26.40
2016,08,18,10,38,26.40
2016,08,18,10,39,26.40
2016,08,18,10,40,26.30
2016,08,18,10,41,26.30
2016,08,18,10,42,26.20
2016,08,18,10,43,26.20
2016,08,18,10,44,26.30
2016,08,18,10,45,26.40
2016,08,18,10,46,26.40
2016,08,18,10,47,26.40
2016,08,18,10,48,26.50
2016,08,18,10,49,26.50
2016,08,18,10,50,26.60
2016,08,18,10,51,26.70
2016,08,18,10,52,26.80
2016,08,18,10,53,26.80
2016,08,18,10,54,26.80
2016,08,18,10,55,26.90
2016,08,18,10,56,27.00
2016,08,18,10,57,27.10
2016,08,18,10,58,27.10
2016,08,18,10,59,27.10
2016,08,18,11,00,27.00
2016,08,18,11,01,27.10
2016,08,18,11,02,27.10
2016,08,18,11,03,27.10
2016,08,18,11,04,27.10
2016,08,18,11,05,27.10
2016,08,18,11,06,27.10
2016,08,18,11,07,27.10
2016,08,18,11,08,27.00
2016,08,18,11,09,26.90
2016,08,18,11,10,26.80
2016,08,18,11,11,26.80
2016,08,18,11,12,26.60
2016,08,18,11,13,26.60
2016,08,18,11,14,26.60
2016,08,18,11,15,26.60
2016,08,18,11,16,26.60
2016,08,18,11,17,26.70
2016,08,18,11,18,26.70
2016,08,18,11,19,26.70
2016,08,18,11,20,26.70
2016,08,18,11,21,26.80
2016,08,18,11,22,27.00
2016,08,18,11,23,27.20
2016,08,18,11,24,27.30
2016,08,18,11,25,27.30
2016,08,18,11,26,27.40
2016,08,18,11,27,27.50
2016,08,18,11,28,27.50
2016,08,18,11,29,27.70
2016,08,18,11,30,27.70
2016,08,18,11,31,27.80
2016,08,18,11,32,27.70
2016,08,18,11,33,27.80
2016,08,18,11,34,27.80
2016,08,18,11,35,27.80
2016,08,18,11,36,27.80
2016,08,18,11,37,27.90
2016,08,18,11,38,27.80
2016,08,18,11,39,27.80
2016,08,18,11,40,27.80
2016,08,18,11,41,27.80
2016,08,18,11,42,27.80
2016,08,18,11,43,27.80
2016,08,18,11,44,27.90
2016,08,18,11,45,27.90
2016,08,18,11,46,27.90
2016,08,18,11,47,28.00
2016,08,18,11,48,28.20
2016,08,18,11,49,28.30
2016,08,18,11,50,28.50
2016,08,18,11,51,28.50
2016,08,18,11,52,28.50
2016,08,18,11,53,28.50
2016,08,18,11,54,28.60
2016,08,18,11,55,28.60
2016,08,18,11,56,28.60
2016,08,18,11,57,28.60
2016,08,18,11,58,28.60
2016,08,18,11,59,28.70
2016,08,18,12,00,28.70
2016,08,18,12,01,28.80
2016,08,18,12,02,28.90
2016,08,18,12,03,28.90
2016,08,18,12,04,29.00
2016,08,18,12,05,29.10
2016,08,18,12,06,29.00
2016,08,18,12,07,29.00
2016,08,18,12,08,28.90
2016,08,18,12,09,28.90
2016,08,18,12,10,28.90
2016,08,18,12,11,29.00
2016,08,18,12,12,29.00
2016,08,18,12,13,29.00
2016,08,18,12,14,29.10
2016,08,18,12,15,29.10
2016,08,18,12,16,29.00
2016,08,18,12,17,29.00
2016,08,18,12,18,29.00
2016,08,18,12,19,28.90
2016,08,18,12,20,28.90
2016,08,18,12,21,29.00
2016,08,18,12,22,29.10
2016,08,18,12,23,29.20
2016,08,18,12,24,29.20
2016,08,18,12,25,29.30
2016,08,18,12,26,29.30
2016,08,18,12,27,29.30
2016,08,18,12,28,29.30
2016,08,18,12,29,29.30
2016,08,18,12,30,29.50
2016,08,18,12,31,29.70
2016,08,18,12,32,29.80
2016,08,18,12,33,30.00
2016,08,18,12,34,30.10
2016,08,18,12,35,30.10
2016,08,18,12,36,30.00
2016,08,18,12,37,30.00
2016,08,18,12,38,29.80
2016,08,18,12,39,29.70
2016,08,18,12,40,29.60
2016,08,18,12,41,29.60
2016,08,18,12,42,29.60
2016,08,18,12,43,29.50
2016,08,18,12,44,29.30
2016,08,18,12,45,28.90
2016,08,18,12,46,28.70
2016,08,18,12,47,28.50
2016,08,18,12,48,28.40
2016,08,18,12,49,28.50
2016,08,18,12,50,28.60
2016,08,18,12,51,28.70
2016,08,18,12,52,28.90
2016,08,18,12,53,28.90
2016,08,18,12,54,28.90
2016,08,18,12,55,28.90
2016,08,18,12,56,29.00
2016,08,18,12,57,29.10
2016,08,18,12,58,29.30
2016,08,18,12,59,29.50
2016,08,18,13,00,29.60
2016,08,18,13,01,29.80
2016,08,18,13,02,29.80
2016,08,18,13,03,29.70
2016,08,18,13,04,29.60
2016,08,18,13,05,29.50
2016,08,18,13,06,29.60
2016,08,18,13,07,29.70
2016,08,18,13,08,29.90
2016,08,18,13,09,29.90
2016,08,18,13,10,29.90
2016,08,18,13,11,29.80
2016,08,18,13,12,29.70
2016,08,18,13,13,29.60
2016,08,18,13,14,29.60
2016,08,18,13,15,29.60
2016,08,18,13,16,29.60
2016,08,18,13,17,29.80
2016,08,18,13,18,30.00
2016,08,18,13,19,30.00
2016,08,18,13,20,29.80
2016,08,18,13,21,29.40
2016,08,18,13,22,29.20
2016,08,18,13,23,29.00
2016,08,18,13,24,28.80
2016,08,18,13,25,28.90
2016,08,18,13,26,28.90
2016,08,18,13,27,29.00
2016,08,18,13,28,29.10
2016,08,18,13,29,29.10
2016,08,18,13,30,29.20
2016,08,18,13,31,29.10
2016,08,18,13,32,29.10
2016,08,18,13,33,29.20
2016,08,18,13,34,29.10
2016,08,18,13,35,29.10
2016,08,18,13,36,29.20
2016,08,18,13,37,29.20
2016,08,18,13,38,29.10
2016,08,18,13,39,29.00
2016,08,18,13,40,29.00
2016,08,18,13,41,29.00
2016,08,18,13,42,29.00
2016,08,18,13,43,29.10
2016,08,18,13,44,29.10
2016,08,18,13,45,29.10
2016,08,18,13,46,28.90
2016,08,18,13,47,28.70
2016,08,18,13,48,28.50
2016,08,18,13,49,28.40
2016,08,18,13,50,28.40
2016,08,18,13,51,28.30
2016,08,18,13,52,28.30
2016,08,18,13,53,28.30
2016,08,18,13,54,28.30
2016,08,18,13,55,28.30
2016,08,18,13,56,28.40
2016,08,18,13,57,28.50
2016,08,18,13,58,28.60
2016,08,18,13,59,28.70
2016,08,18,14,00,28.80
2016,08,18,14,01,28.70
2016,08,18,14,02,28.70
2016,08,18,14,03,28.70
2016,08,18,14,04,28.70
2016,08,18,14,05,28.90
2016,08,18,14,06,29.00
2016,08,18,14,07,29.10
2016,08,18,14,08,29.00
2016,08,18,14,09,28.90
2016,08,18,14,10,28.90
2016,08,18,14,11,28.80
2016,08,18,14,12,28.90
2016,08,18,14,13,29.10
2016,08,18,14,14,29.20
2016,08,18,14,15,29.20
2016,08,18,14,16,29.30
2016,08,18,14,17,29.30
2016,08,18,14,18,29.30
2016,08,18,14,19,29.30
2016,08,18,14,20,29.30
2016,08,18,14,21,29.30
2016,08,18,14,22,29.30
2016,08,18,14,23,29.40
2016,08,18,14,24,29.50
2016,08,18,14,25,29.60
2016,08,18,14,26,29.80
2016,08,18,14,27,29.90
2016,08,18,14,28,30.10
2016,08,18,14,29,30.20
2016,08,18,14,30,30.30
2016,08,18,14,31,30.40
2016,08,18,14,32,30.30
2016,08,18,14,33,30.30
2016,08,18,14,34,30.30
2016,08,18,14,35,30.40
2016,08,18,14,36,30.50
2016,08,18,14,37,30.60
2016,08,18,14,38,30.60
2016,08,18,14,39,30.70
2016,08,18,14,40,30.90
2016,08,18,14,41,30.90
2016,08,18,14,42,31.00
2016,08,18,14,43,31.10
2016,08,18,14,44,31.20
2016,08,18,14,45,31.30
2016,08,18,14,46,31.50
2016,08,18,14,47,31.70
2016,08,18,14,48,31.80
2016,08,18,14,49,31.80
2016,08,18,14,50,31.80
2016,08,18,14,51,31.70
2016,08,18,14,52,31.70
2016,08,18,14,53,31.70
2016,08,18,14,54,31.70
2016,08,18,14,55,31.70
2016,08,18,14,56,31.60
2016,08,18,14,57,31.50
2016,08,18,14,58,31.40
2016,08,18,14,59,31.40
2016,08,18,15,00,31.40
2016,08,18,15,01,31.60
2016,08,18,15,02,31.70
2016,08,18,15,03,31.80
2016,08,18,15,04,31.80
2016,08,18,15,05,31.80
2016,08,18,15,06,31.80
2016,08,18,15,07,31.70
2016,08,18,15,08,31.60
2016,08,18,15,09,31.60
2016,08,18,15,10,31.60
2016,08,18,15,11,31.60
2016,08,18,15,12,31.50
2016,08,18,15,13,31.40
2016,08,18,15,14,31.30
2016,08,18,15,15,31.20
2016,08,18,15,16,31.20
2016,08,18,15,17,31.20
2016,08,18,15,18,31.20
2016,08,18,15,19,31.10
2016,08,18,15,20,31.10
2016,08,18,15,21,31.00
2016,08,18,15,22,31.00
2016,08,18,15,23,31.00
2016,08,18,15,24,31.10
2016,08,18,15,25,31.10
2016,08,18,15,26,31.10
2016,08,18,15,27,31.10
2016,08,18,15,28,31.10
2016,08,18,15,29,31.20
2016,08,18,15,30,31.20
2016,08,18,15,31,31.20
2016,08,18,15,32,31.30
2016,08,18,15,33,31.30
2016,08,18,15,34,31.30
2016,08,18,15,35,31.30
2016,08,18,15,36,31.30
2016,08,18,15,37,31.50
2016,08,18,15,38,31.60
2016,08,18,15,39,31.70
2016,08,18,15,40,31.80
2016,08,18,15,41,31.80
2016,08,18,15,42,31.80
2016,08,18,15,43,31.80
2016,08,18,15,44,31.80
2016,08,18,15,45,31.80
2016,08,18,15,46,31.90
2016,08,18,15,47,32.00
2016,08,18,15,48,32.10
2016,08,18,15,49,32.20
2016,08,18,15,50,32.30
2016,08,18,15,51,32.40
2016,08,18,15,52,32.50
2016,08,18,15,53,32.60
2016,08,18,15,54,32.70
2016,08,18,15,55,32.80
2016,08,18,15,56,32.90
2016,08,18,15,57,33.00
2016,08,18,15,58,32.90
2016,08,18,15,59,32.90
2016,08,18,16,00,32.70
2016,08,18,16,01,32.30
2016,08,18,16,02,32.00
2016,08,18,16,03,31.70
2016,08,18,16,04,31.60
2016,08,18,16,05,31.70
2016,08,18,16,06,31.90
2016,08,18,16,07,32.00
2016,08,18,16,08,32.10
2016,08,18,16,09,32.20
2016,08,18,16,10,32.20
2016,08,18,16,11,32.20
2016,08,18,16,12,32.20
2016,08,18,16,13,32.30
2016,08,18,16,14,32.30
2016,08,18,16,15,32.30
2016,08,18,16,16,32.30
2016,08,18,16,17,32.40
2016,08,18,16,18,32.30
2016,08,18,16,19,32.20
2016,08,18,16,20,32.10
2016,08,18,16,21,32.10
2016,08,18,16,22,32.20
2016,08,18,16,23,32.30
2016,08,18,16,24,32.40
2016,08,18,16,25,32.50
2016,08,18,16,26,32.60
2016,08,18,16,27,32.60
2016,08,18,16,28,32.50
2016,08,18,16,29,32.60
2016,08,18,16,30,32.70
2016,08,18,16,31,32.80
2016,08,18,16,32,32.90
2016,08,18,16,33,32.90
2016,08,18,16,34,32.90
2016,08,18,16,35,32.90
2016,08,18,16,36,32.90
2016,08,18,16,37,32.90
2016,08,18,16,38,32.90
2016,08,18,16,39,32.90
2016,08,18,16,40,32.90
2016,08,18,16,41,32.90
2016,08,18,16,42,32.90
2016,08,18,16,43,32.90
2016,08,18,16,44,32.80
2016,08,18,16,45,32.70
2016,08,18,16,46,32.70
2016,08,18,16,47,32.70
2016,08,18,16,48,32.80
2016,08,18,16,49,32.90
2016,08,18,16,50,33.00
2016,08,18,16,51,33.00
2016,08,18,16,52,33.00
2016,08,18,16,53,33.10
2016,08,18,16,54,33.10
2016,08,18,16,55,33.20
2016,08,18,16,56,33.30
2016,08,18,16,57,33.30
2016,08,18,16,58,33.30
2016,08,18,16,59,33.20
2016,08,18,17,00,33.20
2016,08,18,17,01,33.30
2016,08,18,17,02,33.30
2016,08,18,17,03,33.30
2016,08,18,17,04,33.20
2016,08,18,17,05,33.10
2016,08,18,17,06,33.00
2016,08,18,17,07,32.90
2016,08,18,17,08,32.90
2016,08,18,17,09,33.00
2016,08,18,17,10,33.10
2016,08,18,17,11,33.20
2016,08,18,17,12,33.20
2016,08,18,17,13,33.30
2016,08,18,17,14,33.20
2016,08,18,17,15,33.20
2016,08,18,17,16,33.10
2016,08,18,17,17,33.00
2016,08,18,17,18,32.80
2016,08,18,17,19,32.50